owner,sensor,date,latitude,longitude,vertical_datum,sea_water_practical_salinity,qcFlag 
TABS,ioos:station:wmo:42051:1,2012-09-01T00:00:00Z,29.6350,-93.6417,2.0,34.7503,11111222 
TABS,ioos:station:wmo:42051:1,2012-09-01T00:30:00Z,29.6350,-93.6417,2.0,34.7366,11111222 
TABS,ioos:station:wmo:42051:1,2012-09-01T01:00:00Z,29.6350,-93.6417,2.0,34.7158,11111222 
TABS,ioos:station:wmo:42051:1,2012-09-01T01:30:00Z,29.6350,-93.6417,2.0,34.7302,11111222 
TABS,ioos:station:wmo:42051:1,2012-09-01T02:00:00Z,29.6350,-93.6417,2.0,34.7371,11111222 
TABS,ioos:station:wmo:42051:1,2012-09-01T02:30:00Z,29.6350,-93.6417,2.0,34.7274,11111222 
TABS,ioos:station:wmo:42051:1,2012-09-01T03:00:00Z,29.6350,-93.6417,2.0,34.7281,11111222 
TABS,ioos:station:wmo:42051:1,2012-09-01T03:30:00Z,29.6350,-93.6417,2.0,34.7305,11111222 
TABS,ioos:station:wmo:42051:1,2012-09-01T04:00:00Z,29.6350,-93.6417,2.0,34.7313,11111222 
TABS,ioos:station:wmo:42051:1,2012-09-01T04:30:00Z,29.6350,-93.6417,2.0,34.7487,11111222 
TABS,ioos:station:wmo:42051:1,2012-09-01T05:00:00Z,29.6350,-93.6417,2.0,34.7691,11111222 
TABS,ioos:station:wmo:42051:1,2012-09-01T05:30:00Z,29.6350,-93.6417,2.0,34.7808,11111222 
TABS,ioos:station:wmo:42051:1,2012-09-01T06:00:00Z,29.6350,-93.6417,2.0,34.7846,11111222 
TABS,ioos:station:wmo:42051:1,2012-09-01T06:30:00Z,29.6350,-93.6417,2.0,34.7872,11111222 
TABS,ioos:station:wmo:42051:1,2012-09-01T07:00:00Z,29.6350,-93.6417,2.0,34.7831,11111222 
TABS,ioos:station:wmo:42051:1,2012-09-01T07:30:00Z,29.6350,-93.6417,2.0,34.7926,11111222 
TABS,ioos:station:wmo:42051:1,2012-09-01T08:00:00Z,29.6350,-93.6417,2.0,34.7867,11111222 
TABS,ioos:station:wmo:42051:1,2012-09-01T08:30:00Z,29.6350,-93.6417,2.0,34.7844,11111222 
TABS,ioos:station:wmo:42051:1,2012-09-01T09:00:00Z,29.6350,-93.6417,2.0,34.7802,11111222 
TABS,ioos:station:wmo:42051:1,2012-09-01T09:30:00Z,29.6350,-93.6417,2.0,34.7813,11111222 
TABS,ioos:station:wmo:42051:1,2012-09-01T10:00:00Z,29.6350,-93.6417,2.0,34.7802,11111222 
TABS,ioos:station:wmo:42051:1,2012-09-01T10:30:00Z,29.6350,-93.6417,2.0,34.7696,11111222 
TABS,ioos:station:wmo:42051:1,2012-09-01T11:00:00Z,29.6350,-93.6417,2.0,34.7549,11111222 
TABS,ioos:station:wmo:42051:1,2012-09-01T11:30:00Z,29.6350,-93.6417,2.0,34.7428,11111222 
TABS,ioos:station:wmo:42051:1,2012-09-01T12:00:00Z,29.6350,-93.6417,2.0,34.7285,11111222 
TABS,ioos:station:wmo:42051:1,2012-09-01T12:30:00Z,29.6350,-93.6417,2.0,34.716,11111222 
TABS,ioos:station:wmo:42051:1,2012-09-01T13:00:00Z,29.6350,-93.6417,2.0,34.7022,11111222 
TABS,ioos:station:wmo:42051:1,2012-09-01T13:30:00Z,29.6350,-93.6417,2.0,34.6912,11111222 
TABS,ioos:station:wmo:42051:1,2012-09-01T14:00:00Z,29.6350,-93.6417,2.0,34.6793,11111222 
TABS,ioos:station:wmo:42051:1,2012-09-01T14:30:00Z,29.6350,-93.6417,2.0,34.646,11111222 
TABS,ioos:station:wmo:42051:1,2012-09-01T15:00:00Z,29.6350,-93.6417,2.0,34.6306,11111222 
TABS,ioos:station:wmo:42051:1,2012-09-01T15:30:00Z,29.6350,-93.6417,2.0,34.6231,11111222 
TABS,ioos:station:wmo:42051:1,2012-09-01T16:00:00Z,29.6350,-93.6417,2.0,34.6021,11111222 
TABS,ioos:station:wmo:42051:1,2012-09-01T16:30:00Z,29.6350,-93.6417,2.0,34.5878,11111222 
TABS,ioos:station:wmo:42051:1,2012-09-01T17:00:00Z,29.6350,-93.6417,2.0,34.6058,11111222 
TABS,ioos:station:wmo:42051:1,2012-09-01T17:30:00Z,29.6350,-93.6417,2.0,34.6116,11111222 
TABS,ioos:station:wmo:42051:1,2012-09-01T18:00:00Z,29.6350,-93.6417,2.0,34.6168,11111222 
TABS,ioos:station:wmo:42051:1,2012-09-01T18:30:00Z,29.6350,-93.6417,2.0,34.6098,11111222 
TABS,ioos:station:wmo:42051:1,2012-09-01T19:00:00Z,29.6350,-93.6417,2.0,34.5978,11111222 
TABS,ioos:station:wmo:42051:1,2012-09-01T19:30:00Z,29.6350,-93.6417,2.0,34.5897,11111222 
TABS,ioos:station:wmo:42051:1,2012-09-01T20:00:00Z,29.6350,-93.6417,2.0,34.6098,11111222 
TABS,ioos:station:wmo:42051:1,2012-09-01T20:30:00Z,29.6350,-93.6417,2.0,34.6387,11111222 
TABS,ioos:station:wmo:42051:1,2012-09-01T21:00:00Z,29.6350,-93.6417,2.0,34.6258,11111222 
TABS,ioos:station:wmo:42051:1,2012-09-01T21:30:00Z,29.6350,-93.6417,2.0,34.5998,11111222 
TABS,ioos:station:wmo:42051:1,2012-09-01T22:00:00Z,29.6350,-93.6417,2.0,34.5652,11111222 
TABS,ioos:station:wmo:42051:1,2012-09-01T22:30:00Z,29.6350,-93.6417,2.0,34.4743,11111222 
TABS,ioos:station:wmo:42051:1,2012-09-01T23:00:00Z,29.6350,-93.6417,2.0,34.4239,11111222 
TABS,ioos:station:wmo:42051:1,2012-09-01T23:30:00Z,29.6350,-93.6417,2.0,34.3612,11111222 
TABS,ioos:station:wmo:42051:1,2012-09-02T00:00:00Z,29.6350,-93.6417,2.0,34.3062,11111222 
TABS,ioos:station:wmo:42051:1,2012-09-02T00:30:00Z,29.6350,-93.6417,2.0,34.2511,11111222 
TABS,ioos:station:wmo:42051:1,2012-09-02T01:00:00Z,29.6350,-93.6417,2.0,34.1865,11111222 
TABS,ioos:station:wmo:42051:1,2012-09-02T01:30:00Z,29.6350,-93.6417,2.0,34.0696,11111222 
TABS,ioos:station:wmo:42051:1,2012-09-02T02:00:00Z,29.6350,-93.6417,2.0,33.9757,11111222 
TABS,ioos:station:wmo:42051:1,2012-09-02T02:30:00Z,29.6350,-93.6417,2.0,33.9575,11111222 
TABS,ioos:station:wmo:42051:1,2012-09-02T03:00:00Z,29.6350,-93.6417,2.0,33.9443,11111222 
TABS,ioos:station:wmo:42051:1,2012-09-02T03:30:00Z,29.6350,-93.6417,2.0,33.9365,11111222 
TABS,ioos:station:wmo:42051:1,2012-09-02T04:00:00Z,29.6350,-93.6417,2.0,33.9828,11111222 
TABS,ioos:station:wmo:42051:1,2012-09-02T04:30:00Z,29.6350,-93.6417,2.0,34.0064,11111222 
TABS,ioos:station:wmo:42051:1,2012-09-02T05:00:00Z,29.6350,-93.6417,2.0,33.9831,11111222 
TABS,ioos:station:wmo:42051:1,2012-09-02T05:30:00Z,29.6350,-93.6417,2.0,33.9878,11111222 
TABS,ioos:station:wmo:42051:1,2012-09-02T06:00:00Z,29.6350,-93.6417,2.0,34.0008,11111222 
TABS,ioos:station:wmo:42051:1,2012-09-02T06:30:00Z,29.6350,-93.6417,2.0,33.9682,11111222 
TABS,ioos:station:wmo:42051:1,2012-09-02T07:00:00Z,29.6350,-93.6417,2.0,33.9613,11111222 
TABS,ioos:station:wmo:42051:1,2012-09-02T07:30:00Z,29.6350,-93.6417,2.0,33.9326,11111222 
TABS,ioos:station:wmo:42051:1,2012-09-02T08:00:00Z,29.6350,-93.6417,2.0,33.6579,11111222 
TABS,ioos:station:wmo:42051:1,2012-09-02T08:30:00Z,29.6350,-93.6417,2.0,33.6496,11111222 
TABS,ioos:station:wmo:42051:1,2012-09-02T09:00:00Z,29.6350,-93.6417,2.0,33.7246,11111222 
TABS,ioos:station:wmo:42051:1,2012-09-02T09:30:00Z,29.6350,-93.6417,2.0,33.7455,11111222 
TABS,ioos:station:wmo:42051:1,2012-09-02T10:00:00Z,29.6350,-93.6417,2.0,33.7889,11111222 
TABS,ioos:station:wmo:42051:1,2012-09-02T10:30:00Z,29.6350,-93.6417,2.0,33.8061,11111222 
TABS,ioos:station:wmo:42051:1,2012-09-02T11:00:00Z,29.6350,-93.6417,2.0,33.8259,11111222 
TABS,ioos:station:wmo:42051:1,2012-09-02T11:30:00Z,29.6350,-93.6417,2.0,33.8194,11111222 
TABS,ioos:station:wmo:42051:1,2012-09-02T12:00:00Z,29.6350,-93.6417,2.0,33.789,11111222 
TABS,ioos:station:wmo:42051:1,2012-09-02T12:30:00Z,29.6350,-93.6417,2.0,33.744,11111222 
TABS,ioos:station:wmo:42051:1,2012-09-02T13:00:00Z,29.6350,-93.6417,2.0,33.7378,11111222 
TABS,ioos:station:wmo:42051:1,2012-09-02T13:30:00Z,29.6350,-93.6417,2.0,33.7209,11111222 
TABS,ioos:station:wmo:42051:1,2012-09-02T14:00:00Z,29.6350,-93.6417,2.0,33.6814,11111222 
TABS,ioos:station:wmo:42051:1,2012-09-02T14:30:00Z,29.6350,-93.6417,2.0,33.6194,11111222 
TABS,ioos:station:wmo:42051:1,2012-09-02T15:00:00Z,29.6350,-93.6417,2.0,33.5864,11111222 
TABS,ioos:station:wmo:42051:1,2012-09-02T15:30:00Z,29.6350,-93.6417,2.0,33.5642,11111222 
TABS,ioos:station:wmo:42051:1,2012-09-02T16:00:00Z,29.6350,-93.6417,2.0,33.5446,11111222 
TABS,ioos:station:wmo:42051:1,2012-09-02T16:30:00Z,29.6350,-93.6417,2.0,33.5224,11111222 
TABS,ioos:station:wmo:42051:1,2012-09-02T17:00:00Z,29.6350,-93.6417,2.0,33.5129,11111222 
TABS,ioos:station:wmo:42051:1,2012-09-02T17:30:00Z,29.6350,-93.6417,2.0,33.4971,11111222 
TABS,ioos:station:wmo:42051:1,2012-09-02T18:00:00Z,29.6350,-93.6417,2.0,33.5315,11111222 
TABS,ioos:station:wmo:42051:1,2012-09-02T18:30:00Z,29.6350,-93.6417,2.0,33.4828,11111222 
TABS,ioos:station:wmo:42051:1,2012-09-02T19:00:00Z,29.6350,-93.6417,2.0,33.49,11111222 
TABS,ioos:station:wmo:42051:1,2012-09-02T19:30:00Z,29.6350,-93.6417,2.0,33.4996,11111222 
TABS,ioos:station:wmo:42051:1,2012-09-02T20:00:00Z,29.6350,-93.6417,2.0,33.3269,11111222 
TABS,ioos:station:wmo:42051:1,2012-09-02T20:30:00Z,29.6350,-93.6417,2.0,33.2931,11111222 
TABS,ioos:station:wmo:42051:1,2012-09-02T21:00:00Z,29.6350,-93.6417,2.0,33.2619,11111222 
TABS,ioos:station:wmo:42051:1,2012-09-02T21:30:00Z,29.6350,-93.6417,2.0,33.2127,11111222 
TABS,ioos:station:wmo:42051:1,2012-09-02T22:00:00Z,29.6350,-93.6417,2.0,33.1517,11111222 
TABS,ioos:station:wmo:42051:1,2012-09-02T22:30:00Z,29.6350,-93.6417,2.0,33.0747,11111222 
TABS,ioos:station:wmo:42051:1,2012-09-02T23:00:00Z,29.6350,-93.6417,2.0,33.0027,11111222 
TABS,ioos:station:wmo:42051:1,2012-09-02T23:30:00Z,29.6350,-93.6417,2.0,32.9714,11111222 
TABS,ioos:station:wmo:42051:1,2012-09-03T00:00:00Z,29.6350,-93.6417,2.0,32.9326,11111222 
TABS,ioos:station:wmo:42051:1,2012-09-03T00:30:00Z,29.6350,-93.6417,2.0,32.911,11111222 
TABS,ioos:station:wmo:42051:1,2012-09-03T01:00:00Z,29.6350,-93.6417,2.0,32.8972,11111222 
TABS,ioos:station:wmo:42051:1,2012-09-03T01:30:00Z,29.6350,-93.6417,2.0,32.8789,11111222 
TABS,ioos:station:wmo:42051:1,2012-09-03T02:00:00Z,29.6350,-93.6417,2.0,32.8723,11111222 
TABS,ioos:station:wmo:42051:1,2012-09-03T02:30:00Z,29.6350,-93.6417,2.0,32.8652,11111222 
TABS,ioos:station:wmo:42051:1,2012-09-03T03:00:00Z,29.6350,-93.6417,2.0,32.8674,11111222 
TABS,ioos:station:wmo:42051:1,2012-09-03T03:30:00Z,29.6350,-93.6417,2.0,32.8698,11111222 
TABS,ioos:station:wmo:42051:1,2012-09-03T04:00:00Z,29.6350,-93.6417,2.0,32.8756,11111222 
TABS,ioos:station:wmo:42051:1,2012-09-03T04:30:00Z,29.6350,-93.6417,2.0,32.8796,11111222 
TABS,ioos:station:wmo:42051:1,2012-09-03T05:00:00Z,29.6350,-93.6417,2.0,32.8908,11111222 
TABS,ioos:station:wmo:42051:1,2012-09-03T05:30:00Z,29.6350,-93.6417,2.0,32.8959,11111222 
TABS,ioos:station:wmo:42051:1,2012-09-03T06:00:00Z,29.6350,-93.6417,2.0,32.922,11111222 
TABS,ioos:station:wmo:42051:1,2012-09-03T06:30:00Z,29.6350,-93.6417,2.0,32.9587,11111222 
TABS,ioos:station:wmo:42051:1,2012-09-03T07:00:00Z,29.6350,-93.6417,2.0,33.0115,11111222 
TABS,ioos:station:wmo:42051:1,2012-09-03T07:30:00Z,29.6350,-93.6417,2.0,33.068,11111222 
TABS,ioos:station:wmo:42051:1,2012-09-03T08:00:00Z,29.6350,-93.6417,2.0,33.1643,11111222 
TABS,ioos:station:wmo:42051:1,2012-09-03T08:30:00Z,29.6350,-93.6417,2.0,33.2599,11111222 
TABS,ioos:station:wmo:42051:1,2012-09-03T09:00:00Z,29.6350,-93.6417,2.0,33.3795,11111222 
TABS,ioos:station:wmo:42051:1,2012-09-03T09:30:00Z,29.6350,-93.6417,2.0,33.45,11111222 
TABS,ioos:station:wmo:42051:1,2012-09-03T10:00:00Z,29.6350,-93.6417,2.0,33.4379,11111222 
TABS,ioos:station:wmo:42051:1,2012-09-03T10:30:00Z,29.6350,-93.6417,2.0,33.4468,11111222 
TABS,ioos:station:wmo:42051:1,2012-09-03T11:00:00Z,29.6350,-93.6417,2.0,33.4292,11111222 
TABS,ioos:station:wmo:42051:1,2012-09-03T11:30:00Z,29.6350,-93.6417,2.0,33.4006,11111222 
TABS,ioos:station:wmo:42051:1,2012-09-03T12:00:00Z,29.6350,-93.6417,2.0,33.3573,11111222 
TABS,ioos:station:wmo:42051:1,2012-09-03T12:30:00Z,29.6350,-93.6417,2.0,33.3434,11111222 
TABS,ioos:station:wmo:42051:1,2012-09-03T13:00:00Z,29.6350,-93.6417,2.0,33.3526,11111222 
TABS,ioos:station:wmo:42051:1,2012-09-03T13:30:00Z,29.6350,-93.6417,2.0,33.3981,11111222 
TABS,ioos:station:wmo:42051:1,2012-09-03T14:00:00Z,29.6350,-93.6417,2.0,33.37,11111222 
TABS,ioos:station:wmo:42051:1,2012-09-03T14:30:00Z,29.6350,-93.6417,2.0,33.4089,11111222 
TABS,ioos:station:wmo:42051:1,2012-09-03T15:00:00Z,29.6350,-93.6417,2.0,33.3812,11111222 
TABS,ioos:station:wmo:42051:1,2012-09-03T15:30:00Z,29.6350,-93.6417,2.0,33.3813,11111222 
TABS,ioos:station:wmo:42051:1,2012-09-03T16:00:00Z,29.6350,-93.6417,2.0,33.3529,11111222 
TABS,ioos:station:wmo:42051:1,2012-09-03T16:30:00Z,29.6350,-93.6417,2.0,33.3464,11111222 
TABS,ioos:station:wmo:42051:1,2012-09-03T17:00:00Z,29.6350,-93.6417,2.0,33.3473,11111222 
TABS,ioos:station:wmo:42051:1,2012-09-03T17:30:00Z,29.6350,-93.6417,2.0,33.3634,11111222 
TABS,ioos:station:wmo:42051:1,2012-09-03T18:00:00Z,29.6350,-93.6417,2.0,33.3469,11111222 
TABS,ioos:station:wmo:42051:1,2012-09-03T18:30:00Z,29.6350,-93.6417,2.0,33.3699,11111222 
TABS,ioos:station:wmo:42051:1,2012-09-03T19:00:00Z,29.6350,-93.6417,2.0,33.3548,11111222 
TABS,ioos:station:wmo:42051:1,2012-09-03T19:30:00Z,29.6350,-93.6417,2.0,33.4126,11111222 
TABS,ioos:station:wmo:42051:1,2012-09-03T20:00:00Z,29.6350,-93.6417,2.0,33.5198,11111222 
TABS,ioos:station:wmo:42051:1,2012-09-03T20:30:00Z,29.6350,-93.6417,2.0,33.8478,11111222 
TABS,ioos:station:wmo:42051:1,2012-09-03T21:00:00Z,29.6350,-93.6417,2.0,33.9136,11111222 
TABS,ioos:station:wmo:42051:1,2012-09-03T21:30:00Z,29.6350,-93.6417,2.0,33.9072,11111222 
TABS,ioos:station:wmo:42051:1,2012-09-03T22:00:00Z,29.6350,-93.6417,2.0,33.903,11111222 
TABS,ioos:station:wmo:42051:1,2012-09-03T22:30:00Z,29.6350,-93.6417,2.0,33.9047,11111222 
TABS,ioos:station:wmo:42051:1,2012-09-03T23:00:00Z,29.6350,-93.6417,2.0,33.8993,11111222 
TABS,ioos:station:wmo:42051:1,2012-09-03T23:30:00Z,29.6350,-93.6417,2.0,33.9222,11111222 
TABS,ioos:station:wmo:42051:1,2012-09-04T00:00:00Z,29.6350,-93.6417,2.0,33.9509,11111222 
TABS,ioos:station:wmo:42051:1,2012-09-04T00:30:00Z,29.6350,-93.6417,2.0,33.9945,11111222 
TABS,ioos:station:wmo:42051:1,2012-09-04T01:00:00Z,29.6350,-93.6417,2.0,33.9938,11111222 
TABS,ioos:station:wmo:42051:1,2012-09-04T01:30:00Z,29.6350,-93.6417,2.0,34.0291,11111222 
TABS,ioos:station:wmo:42051:1,2012-09-04T02:00:00Z,29.6350,-93.6417,2.0,34.037,11111222 
TABS,ioos:station:wmo:42051:1,2012-09-04T02:30:00Z,29.6350,-93.6417,2.0,34.0481,11111222 
TABS,ioos:station:wmo:42051:1,2012-09-04T03:00:00Z,29.6350,-93.6417,2.0,34.006,11111222 
TABS,ioos:station:wmo:42051:1,2012-09-04T03:30:00Z,29.6350,-93.6417,2.0,34.0289,11111222 
TABS,ioos:station:wmo:42051:1,2012-09-04T04:00:00Z,29.6350,-93.6417,2.0,34.0218,11111222 
TABS,ioos:station:wmo:42051:1,2012-09-04T04:30:00Z,29.6350,-93.6417,2.0,33.9569,11111222 
TABS,ioos:station:wmo:42051:1,2012-09-04T05:00:00Z,29.6350,-93.6417,2.0,33.9793,11111222 
TABS,ioos:station:wmo:42051:1,2012-09-04T05:30:00Z,29.6350,-93.6417,2.0,34.0013,11111222 
TABS,ioos:station:wmo:42051:1,2012-09-04T06:00:00Z,29.6350,-93.6417,2.0,34.0116,11111222 
TABS,ioos:station:wmo:42051:1,2012-09-04T06:30:00Z,29.6350,-93.6417,2.0,33.9859,11111222 
TABS,ioos:station:wmo:42051:1,2012-09-04T07:00:00Z,29.6350,-93.6417,2.0,33.9804,11111222 
TABS,ioos:station:wmo:42051:1,2012-09-04T07:30:00Z,29.6350,-93.6417,2.0,33.9763,11111222 
TABS,ioos:station:wmo:42051:1,2012-09-04T08:00:00Z,29.6350,-93.6417,2.0,33.9691,11111222 
TABS,ioos:station:wmo:42051:1,2012-09-04T08:30:00Z,29.6350,-93.6417,2.0,33.8727,11111222 
TABS,ioos:station:wmo:42051:1,2012-09-04T09:00:00Z,29.6350,-93.6417,2.0,33.829,11111222 
TABS,ioos:station:wmo:42051:1,2012-09-04T09:30:00Z,29.6350,-93.6417,2.0,33.8648,11111222 
TABS,ioos:station:wmo:42051:1,2012-09-04T10:00:00Z,29.6350,-93.6417,2.0,33.8436,11111222 
TABS,ioos:station:wmo:42051:1,2012-09-04T10:30:00Z,29.6350,-93.6417,2.0,33.7653,11111222 
TABS,ioos:station:wmo:42051:1,2012-09-04T11:00:00Z,29.6350,-93.6417,2.0,33.7481,11111222 
TABS,ioos:station:wmo:42051:1,2012-09-04T11:30:00Z,29.6350,-93.6417,2.0,33.6757,11111222 
TABS,ioos:station:wmo:42051:1,2012-09-04T12:00:00Z,29.6350,-93.6417,2.0,33.6414,11111222 
TABS,ioos:station:wmo:42051:1,2012-09-04T12:30:00Z,29.6350,-93.6417,2.0,33.6324,11111222 
TABS,ioos:station:wmo:42051:1,2012-09-04T13:00:00Z,29.6350,-93.6417,2.0,33.6709,11111222 
TABS,ioos:station:wmo:42051:1,2012-09-04T13:30:00Z,29.6350,-93.6417,2.0,33.7469,11111222 
TABS,ioos:station:wmo:42051:1,2012-09-04T14:00:00Z,29.6350,-93.6417,2.0,33.7454,11111222 
TABS,ioos:station:wmo:42051:1,2012-09-04T14:30:00Z,29.6350,-93.6417,2.0,33.8143,11111222 
TABS,ioos:station:wmo:42051:1,2012-09-04T15:00:00Z,29.6350,-93.6417,2.0,33.8475,11111222 
TABS,ioos:station:wmo:42051:1,2012-09-04T15:30:00Z,29.6350,-93.6417,2.0,33.8608,11111222 
TABS,ioos:station:wmo:42051:1,2012-09-04T16:00:00Z,29.6350,-93.6417,2.0,33.842,11111222 
TABS,ioos:station:wmo:42051:1,2012-09-04T16:30:00Z,29.6350,-93.6417,2.0,33.8561,11111222 
TABS,ioos:station:wmo:42051:1,2012-09-04T17:00:00Z,29.6350,-93.6417,2.0,33.9634,11111222 
TABS,ioos:station:wmo:42051:1,2012-09-04T17:30:00Z,29.6350,-93.6417,2.0,33.9651,11111222 
TABS,ioos:station:wmo:42051:1,2012-09-04T18:00:00Z,29.6350,-93.6417,2.0,33.9892,11111222 
TABS,ioos:station:wmo:42051:1,2012-09-04T18:30:00Z,29.6350,-93.6417,2.0,34.0276,11111222 
TABS,ioos:station:wmo:42051:1,2012-09-04T19:00:00Z,29.6350,-93.6417,2.0,34.027,11111222 
TABS,ioos:station:wmo:42051:1,2012-09-04T19:30:00Z,29.6350,-93.6417,2.0,34.0422,11111222 
TABS,ioos:station:wmo:42051:1,2012-09-04T20:00:00Z,29.6350,-93.6417,2.0,34.083,11111222 
TABS,ioos:station:wmo:42051:1,2012-09-04T20:30:00Z,29.6350,-93.6417,2.0,34.0803,11111222 
TABS,ioos:station:wmo:42051:1,2012-09-04T21:00:00Z,29.6350,-93.6417,2.0,34.0723,11111222 
TABS,ioos:station:wmo:42051:1,2012-09-04T21:30:00Z,29.6350,-93.6417,2.0,34.0374,11111222 
TABS,ioos:station:wmo:42051:1,2012-09-04T22:00:00Z,29.6350,-93.6417,2.0,34.0391,11111222 
TABS,ioos:station:wmo:42051:1,2012-09-04T22:30:00Z,29.6350,-93.6417,2.0,34.0381,11111222 
TABS,ioos:station:wmo:42051:1,2012-09-04T23:00:00Z,29.6350,-93.6417,2.0,34.0222,11111222 
TABS,ioos:station:wmo:42051:1,2012-09-04T23:30:00Z,29.6350,-93.6417,2.0,34.0154,11111222 
TABS,ioos:station:wmo:42051:1,2012-09-05T00:00:00Z,29.6350,-93.6417,2.0,34.0081,11111222 
TABS,ioos:station:wmo:42051:1,2012-09-05T00:30:00Z,29.6350,-93.6417,2.0,34.0055,11111222 
TABS,ioos:station:wmo:42051:1,2012-09-05T01:00:00Z,29.6350,-93.6417,2.0,33.7054,11111222 
TABS,ioos:station:wmo:42051:1,2012-09-05T01:30:00Z,29.6350,-93.6417,2.0,33.4492,11111222 
TABS,ioos:station:wmo:42051:1,2012-09-05T02:00:00Z,29.6350,-93.6417,2.0,33.4171,11111222 
TABS,ioos:station:wmo:42051:1,2012-09-05T02:30:00Z,29.6350,-93.6417,2.0,33.3104,11111222 
TABS,ioos:station:wmo:42051:1,2012-09-05T03:00:00Z,29.6350,-93.6417,2.0,33.1259,11111222 
TABS,ioos:station:wmo:42051:1,2012-09-05T03:30:00Z,29.6350,-93.6417,2.0,33.2781,11111222 
TABS,ioos:station:wmo:42051:1,2012-09-05T04:00:00Z,29.6350,-93.6417,2.0,33.1275,11111222 
TABS,ioos:station:wmo:42051:1,2012-09-05T04:30:00Z,29.6350,-93.6417,2.0,33.0295,11111222 
TABS,ioos:station:wmo:42051:1,2012-09-05T05:00:00Z,29.6350,-93.6417,2.0,32.8713,11111222 
TABS,ioos:station:wmo:42051:1,2012-09-05T05:30:00Z,29.6350,-93.6417,2.0,33.1056,11111222 
TABS,ioos:station:wmo:42051:1,2012-09-05T06:00:00Z,29.6350,-93.6417,2.0,32.8975,11111222 
TABS,ioos:station:wmo:42051:1,2012-09-05T06:30:00Z,29.6350,-93.6417,2.0,32.9928,11111222 
TABS,ioos:station:wmo:42051:1,2012-09-05T07:00:00Z,29.6350,-93.6417,2.0,33.0354,11111222 
TABS,ioos:station:wmo:42051:1,2012-09-05T07:30:00Z,29.6350,-93.6417,2.0,33.3245,11111222 
TABS,ioos:station:wmo:42051:1,2012-09-05T08:00:00Z,29.6350,-93.6417,2.0,33.5005,11111222 
TABS,ioos:station:wmo:42051:1,2012-09-05T08:30:00Z,29.6350,-93.6417,2.0,33.6435,11111222 
TABS,ioos:station:wmo:42051:1,2012-09-05T09:00:00Z,29.6350,-93.6417,2.0,33.8425,11111222 
TABS,ioos:station:wmo:42051:1,2012-09-05T09:30:00Z,29.6350,-93.6417,2.0,33.9657,11111222 
TABS,ioos:station:wmo:42051:1,2012-09-05T10:00:00Z,29.6350,-93.6417,2.0,34.0288,11111222 
TABS,ioos:station:wmo:42051:1,2012-09-05T10:30:00Z,29.6350,-93.6417,2.0,34.0768,11111222 
TABS,ioos:station:wmo:42051:1,2012-09-05T11:00:00Z,29.6350,-93.6417,2.0,34.104,11111222 
TABS,ioos:station:wmo:42051:1,2012-09-05T11:30:00Z,29.6350,-93.6417,2.0,34.1324,11111222 
TABS,ioos:station:wmo:42051:1,2012-09-05T12:00:00Z,29.6350,-93.6417,2.0,34.1418,11111222 
TABS,ioos:station:wmo:42051:1,2012-09-05T12:30:00Z,29.6350,-93.6417,2.0,34.1333,11111222 
TABS,ioos:station:wmo:42051:1,2012-09-05T13:00:00Z,29.6350,-93.6417,2.0,34.1488,11111222 
TABS,ioos:station:wmo:42051:1,2012-09-05T13:30:00Z,29.6350,-93.6417,2.0,34.1542,11111222 
TABS,ioos:station:wmo:42051:1,2012-09-05T14:00:00Z,29.6350,-93.6417,2.0,34.1607,11111222 
TABS,ioos:station:wmo:42051:1,2012-09-05T14:30:00Z,29.6350,-93.6417,2.0,34.1649,11111222 
TABS,ioos:station:wmo:42051:1,2012-09-05T15:00:00Z,29.6350,-93.6417,2.0,34.197,11111222 
TABS,ioos:station:wmo:42051:1,2012-09-05T15:30:00Z,29.6350,-93.6417,2.0,34.1912,11111222 
TABS,ioos:station:wmo:42051:1,2012-09-05T16:00:00Z,29.6350,-93.6417,2.0,34.2002,11111222 
TABS,ioos:station:wmo:42051:1,2012-09-05T16:30:00Z,29.6350,-93.6417,2.0,34.2235,11111222 
TABS,ioos:station:wmo:42051:1,2012-09-05T17:00:00Z,29.6350,-93.6417,2.0,34.2585,11111222 
TABS,ioos:station:wmo:42051:1,2012-09-05T17:30:00Z,29.6350,-93.6417,2.0,34.2477,11111222 
TABS,ioos:station:wmo:42051:1,2012-09-05T18:00:00Z,29.6350,-93.6417,2.0,34.275,11111222 
TABS,ioos:station:wmo:42051:1,2012-09-05T18:30:00Z,29.6350,-93.6417,2.0,34.2681,11111222 
TABS,ioos:station:wmo:42051:1,2012-09-05T19:00:00Z,29.6350,-93.6417,2.0,34.3174,11111222 
TABS,ioos:station:wmo:42051:1,2012-09-05T19:30:00Z,29.6350,-93.6417,2.0,34.2803,11111222 
TABS,ioos:station:wmo:42051:1,2012-09-05T20:00:00Z,29.6350,-93.6417,2.0,34.2496,11111222 
TABS,ioos:station:wmo:42051:1,2012-09-05T20:30:00Z,29.6350,-93.6417,2.0,34.2916,11111222 
TABS,ioos:station:wmo:42051:1,2012-09-05T21:00:00Z,29.6350,-93.6417,2.0,34.2694,11111222 
TABS,ioos:station:wmo:42051:1,2012-09-05T21:30:00Z,29.6350,-93.6417,2.0,34.2534,11111222 
TABS,ioos:station:wmo:42051:1,2012-09-05T22:00:00Z,29.6350,-93.6417,2.0,34.262,11111222 
TABS,ioos:station:wmo:42051:1,2012-09-05T22:30:00Z,29.6350,-93.6417,2.0,34.2634,11111222 
TABS,ioos:station:wmo:42051:1,2012-09-05T23:00:00Z,29.6350,-93.6417,2.0,34.244,11111222 
TABS,ioos:station:wmo:42051:1,2012-09-05T23:30:00Z,29.6350,-93.6417,2.0,34.2765,11111222 
TABS,ioos:station:wmo:42051:1,2012-09-06T00:00:00Z,29.6350,-93.6417,2.0,34.2663,11111222 
TABS,ioos:station:wmo:42051:1,2012-09-06T00:30:00Z,29.6350,-93.6417,2.0,34.2901,11111222 
TABS,ioos:station:wmo:42051:1,2012-09-06T01:00:00Z,29.6350,-93.6417,2.0,34.2893,11111222 
TABS,ioos:station:wmo:42051:1,2012-09-06T01:30:00Z,29.6350,-93.6417,2.0,34.3077,11111222 
TABS,ioos:station:wmo:42051:1,2012-09-06T02:00:00Z,29.6350,-93.6417,2.0,34.3419,11111222 
TABS,ioos:station:wmo:42051:1,2012-09-06T02:30:00Z,29.6350,-93.6417,2.0,33.8761,11111222 
TABS,ioos:station:wmo:42051:1,2012-09-06T03:00:00Z,29.6350,-93.6417,2.0,33.877,11111222 
TABS,ioos:station:wmo:42051:1,2012-09-06T03:30:00Z,29.6350,-93.6417,2.0,33.7475,11111222 
TABS,ioos:station:wmo:42051:1,2012-09-06T04:00:00Z,29.6350,-93.6417,2.0,33.8994,11111222 
TABS,ioos:station:wmo:42051:1,2012-09-06T04:30:00Z,29.6350,-93.6417,2.0,33.8925,11111222 
TABS,ioos:station:wmo:42051:1,2012-09-06T05:00:00Z,29.6350,-93.6417,2.0,33.8217,11111222 
TABS,ioos:station:wmo:42051:1,2012-09-06T05:30:00Z,29.6350,-93.6417,2.0,33.7176,11111222 
TABS,ioos:station:wmo:42051:1,2012-09-06T06:00:00Z,29.6350,-93.6417,2.0,33.6839,11111222 
TABS,ioos:station:wmo:42051:1,2012-09-06T06:30:00Z,29.6350,-93.6417,2.0,33.4973,11111222 
TABS,ioos:station:wmo:42051:1,2012-09-06T07:00:00Z,29.6350,-93.6417,2.0,33.537,11111222 
TABS,ioos:station:wmo:42051:1,2012-09-06T07:30:00Z,29.6350,-93.6417,2.0,33.5593,11111222 
TABS,ioos:station:wmo:42051:1,2012-09-06T08:00:00Z,29.6350,-93.6417,2.0,33.397,11111222 
TABS,ioos:station:wmo:42051:1,2012-09-06T08:30:00Z,29.6350,-93.6417,2.0,33.4758,11111222 
TABS,ioos:station:wmo:42051:1,2012-09-06T09:00:00Z,29.6350,-93.6417,2.0,33.3451,11111222 
TABS,ioos:station:wmo:42051:1,2012-09-06T09:30:00Z,29.6350,-93.6417,2.0,33.3749,11111222 
TABS,ioos:station:wmo:42051:1,2012-09-06T10:00:00Z,29.6350,-93.6417,2.0,33.4335,11111222 
TABS,ioos:station:wmo:42051:1,2012-09-06T10:30:00Z,29.6350,-93.6417,2.0,33.4904,11111222 
TABS,ioos:station:wmo:42051:1,2012-09-06T11:00:00Z,29.6350,-93.6417,2.0,33.5704,11111222 
TABS,ioos:station:wmo:42051:1,2012-09-06T11:30:00Z,29.6350,-93.6417,2.0,33.6956,11111222 
TABS,ioos:station:wmo:42051:1,2012-09-06T12:00:00Z,29.6350,-93.6417,2.0,33.7644,11111222 